TimeMDT,TemperatureF,Dew PointF,Humidity,Sea Level PressureIn,VisibilityMPH,Wind Direction,Wind SpeedMPH,Gust SpeedMPH,PrecipitationIn,Events,Conditions,WindDirDegrees,DateUTC
12:53 AM,43.0,30.0,60,29.88,10.0,WSW,13.8,-,N/A,,Clear,240,2013-10-11 06:53:00
1:53 AM,43.0,28.9,58,29.90,10.0,SW,16.1,-,N/A,,Clear,230,2013-10-11 07:53:00
2:53 AM,39.9,28.9,65,29.93,10.0,SW,15.0,-,N/A,,Clear,230,2013-10-11 08:53:00
3:53 AM,37.9,28.9,70,29.95,10.0,SW,10.4,-,N/A,,Clear,220,2013-10-11 09:53:00
4:53 AM,37.9,30.0,73,29.97,10.0,SW,12.7,-,N/A,,Clear,220,2013-10-11 10:53:00
5:53 AM,37.9,28.9,70,30.00,10.0,SSW,11.5,-,N/A,,Clear,210,2013-10-11 11:53:00
6:53 AM,37.0,28.9,73,30.03,10.0,SW,11.5,-,N/A,,Clear,220,2013-10-11 12:53:00
7:53 AM,35.1,28.0,76,30.06,10.0,SW,6.9,-,N/A,,Clear,220,2013-10-11 13:53:00
8:53 AM,39.0,28.9,67,30.07,10.0,SW,9.2,-,N/A,,Clear,230,2013-10-11 14:53:00
9:53 AM,43.0,28.9,58,30.08,10.0,WSW,11.5,-,N/A,,Clear,250,2013-10-11 15:53:00
10:53 AM,46.0,28.9,51,30.09,10.0,WSW,15.0,-,N/A,,Clear,250,2013-10-11 16:53:00
11:53 AM,48.9,28.9,46,30.08,10.0,WSW,13.8,-,N/A,,Clear,240,2013-10-11 17:53:00
12:53 PM,51.1,28.9,43,30.08,10.0,SW,16.1,21.9,N/A,,Clear,230,2013-10-11 18:53:00
1:53 PM,53.1,28.0,38,30.05,10.0,WSW,12.7,20.7,N/A,,Clear,240,2013-10-11 19:53:00
2:53 PM,53.1,28.0,38,30.05,10.0,WSW,10.4,20.7,N/A,,Clear,250,2013-10-11 20:53:00
3:53 PM,54.0,27.0,35,30.05,10.0,West,6.9,19.6,N/A,,Clear,260,2013-10-11 21:53:00
4:53 PM,55.0,26.1,33,30.04,10.0,West,10.4,-,N/A,,Clear,270,2013-10-11 22:53:00
5:53 PM,53.1,26.1,35,30.03,10.0,West,10.4,-,N/A,,Clear,270,2013-10-11 23:53:00
6:53 PM,46.9,27.0,46,30.05,10.0,West,4.6,-,N/A,,Clear,280,2013-10-12 00:53:00
7:53 PM,44.1,27.0,51,30.06,10.0,Calm,Calm,-,N/A,,Clear,0,2013-10-12 01:53:00
8:53 PM,43.0,25.0,49,30.06,10.0,Calm,Calm,-,N/A,,Clear,0,2013-10-12 02:53:00
9:53 PM,41.0,26.1,55,30.06,10.0,ESE,6.9,-,N/A,,Clear,120,2013-10-12 03:53:00
10:53 PM,39.0,27.0,62,30.07,10.0,East,8.1,-,N/A,,Clear,100,2013-10-12 04:53:00